sat.trackr.live / text

‹ back to catalog

ONEWEB-0247

NORAD 48777 · 2021-045L

PAYLOAD ACTIVE UNKNOWN

§ Identity

Operator
Country
UK
Launch date
2021-05-28
Launch site
VOSTO
Launch vehicle
Mass (kg)
RCS (m²)

Purposes: comms

External: N2YO · Heavens-Above · Gunter

§ Orbital elements

Epoch: 2026-05-25T00:37:16.809600Z

Period
109.46 min
Inclination
87.8991°
Eccentricity
0.0001585
Mean motion
13.15548427 rev/d
Perigee alt
1,200.6 km
Apogee alt
1,203.0 km
Semi-major
7,579.9 km
B*
7.9402e-5
RAAN
263.8287°
Arg perigee
75.0032°
Mean anomaly
285.1273°
Rev number
24,136

§ Raw data

ONEWEB-02471 48777U 21045L   26145.02588900  .00000043  00000+0  79402-4 0  99972 48777  87.8991 263.8287 0001585  75.0032 285.1273 13.15548427241363

JSON: /api/v1/satellites/48777 · /tle

For live sub-satellite position, see the globe view (requires WebGL).

§ Visibility from observer

Set your observer location to see the next 7 days of passes ≥ 10°. The values pass through the URL so the page stays shareable.

No JS? Fill the form by hand. The geolocation button needs JavaScript.